SCP
0 0 0 0 0 0 0 0 0 0 0 0 0 0 0 0 0 0 0 0 0 0 0 0 0 0 0 0 0 0 0 0
0 0 0 0 0 0 0 0 0 0 0 0 0 0 0 0 0 0 0 0 0 0 0 0 0 0 0 0 0 0 0 0
0 0 0 0 0 0 0 0 0 0 0 0 0 0 0 0 0 0 0 0 0 0 0 0 0 0 0 0 0 0 0 0
0 0 0 0 0 0 0 0 0 0 0 0 0 0 0 0 0 0 0 0 0 0 0 0 0 0 0 0 0 0 0 0
0 0 0 0 0 0 0 0 0 0 0 0 0 0 0 0 0 0 0 0 0 0 0 0 0 0 0 0 0 0 0 0
0 0 0 0 0 0 0 0 0 0 0 0 0 0 0 0 0 0 0 0 0 0 0 0 0 0 0 0 0 0 0 0
0 0 0 0 0 0 0 0 0 0 0 0 0 0 0 0 0 0 0 0 0 0 0 0 0 0 0 0 0 0 0 0
0 0 0 0 0 0 0 0 0 0 0 0 0 0 0 0 0 0 0 0 0 0 0 0 0 0 0 0 0 0 0 0
0 0 0 0 0 0 0 0 0 0 0 0 0 0 0 0 0 0 0 0 0 0 0 0 0 0 0 0 0 0 0 0
0 0 0 0 0 0 0 0 0 0 0 0 0 0 0 0 0 0 0 0 0 0 0 0 0 0 0 0 0 0 0 0
0 0 0 0 0 0 0 0 0 0 0 0 0 0 0 0 0 0 0 0 0 0 0 0 0 0 0 0 0 0 0 0
0 0 0 0 0 0 0 0 0 0 0 0 0 0 0 0 0 0 0 0 0 0 0 0 0 0 0 0 0 0 0 0
0 0 0 0 0 0 0 0 0 0 0 0 0 0 0 0 0 0 0 0 0 0 0 0 0 0 0 0 0 0 0 0
0 0 0 0 0 0 0 0 0 0 0 0 0 0 0 0 0 0 0 0 0 0 0 0 0 0 0 0 0 0 0 0
0 0 0 0 0 0 0 0 0 0 0 0 0 0 0 0 0 0 0 0 0 0 0 0 0 0 0 0 0 0 0 0
0 0 0 0 0 0 0 0 0 0 0 0 0 0 0 0 0 0 0 0 0 0 0 0 0 0 0 0 0 0 0 0
0 0 0 0 0 0 0 0 0 0 0 0 0 0 0 0 0 0 0 0 0 0 0 0 0 0 0 0 0 0 0 0
0 0 0 0 0 0 0 0 0 0 0 0 0 0 0 0 0 0 0 0 0 0 0 0 0 0 0 0 0 0 0 0
0 0 0 0 0 0 0 0 0 0 0 0 0 0 0 0 0 0 0 0 0 0 0 0 0 0 0 0 0 0 0 0
0 0 0 0 0 0 0 0 0 0 0 0 0 0 0 0 0 0 0 0 0 0 0 0 0 0 0 0 0 0 0 0
Wind_Speed_500mb
2 5 7 10 12 11 11 15 19 22 24 24 25 27 31 36 41 43 45 47 49 52 53 56 62 67 66 63 61 66 67 67
4 7 8 10 11 15 18 18 17 16 15 14 14 15 16 15 19 24 27 30 34 40 43 46 49 53 60 69 72 73 72 72
3 8 6 4 7 15 20 22 21 18 16 14 9 6 8 11 19 25 28 31 33 34 37 41 46 50 55 59 59 59 62 66
3 4 11 15 17 19 20 20 16 9 4 2 5 13 20 22 27 31 34 37 38 38 38 40 43 47 50 53 54 57 57 61
8 12 17 19 20 19 16 13 8 4 9 13 15 22 29 33 36 38 40 41 41 41 42 42 44 48 49 53 54 55 57 59
11 10 14 14 10 7 3 7 9 12 18 24 29 35 38 41 45 44 44 45 45 45 44 43 44 44 46 47 49 55 57 59
14 13 13 13 15 12 9 11 16 23 26 35 37 38 40 43 44 42 43 46 47 46 46 48 46 43 46 48 52 57 60 62
17 11 6 4 2 4 6 12 20 22 22 27 26 28 30 32 34 34 37 40 43 45 47 46 46 45 47 49 54 56 59 60
13 11 9 8 8 7 5 3 6 9 14 18 21 23 24 26 29 33 37 40 41 42 46 49 46 48 47 48 54 58 59 60
9 6 4 2 5 9 11 14 17 20 23 25 27 29 31 33 36 39 42 45 47 47 48 50 48 53 53 51 55 59 61 60
11 7 3 1 5 10 15 20 23 26 28 30 32 35 37 40 43 46 48 49 52 54 53 53 49 47 48 50 58 63 60 58
7 3 1 7 12 18 22 25 27 27 28 31 33 37 40 43 45 47 50 51 51 51 49 47 44 40 41 42 53 55 54 49
1 5 10 15 19 21 23 23 23 24 27 31 37 41 44 46 48 49 52 53 50 49 45 44 42 42 38 39 43 50 49 42
5 10 15 18 19 19 23 25 27 30 34 38 41 45 47 46 47 47 47 48 44 43 43 41 40 38 38 38 38 41 42 34
13 14 16 19 22 24 26 30 34 37 40 44 48 49 50 51 51 51 49 46 43 43 44 41 38 37 37 38 37 36 38 39
19 20 23 26 31 34 37 40 42 45 47 50 53 55 53 53 53 52 48 48 47 46 45 40 36 31 36 36 34 32 32 32
23 27 32 35 40 46 50 53 56 57 57 57 57 55 56 57 57 55 54 51 50 50 47 39 39 38 34 33 29 27 28 31
31 34 37 39 43 48 51 54 58 61 61 63 64 64 61 60 60 62 56 51 53 52 52 49 46 39 34 28 25 25 25 31
33 38 43 46 50 53 56 58 60 62 64 68 68 67 66 63 62 63 63 62 50 50 51 51 47 37 30 22 21 22 23 29
37 40 40 41 44 48 52 55 57 60 61 64 66 64 63 62 63 61 60 60 57 50 49 50 45 37 26 25 24 24 22 21
Wind_Direction_500mb
230 220 236 237 239 236 227 222 219 223 225 227 230 235 241 247 253 258 261 264 264 265 262 260 257 260 263 269 270 270 272 272
260 275 274 263 241 221 210 203 199 198 196 196 203 215 226 244 261 269 274 275 276 273 270 265 262 261 261 261 264 267 269 270
304 266 280 256 171 158 152 143 139 142 148 155 163 215 264 289 295 297 299 295 293 290 286 281 276 271 267 267 268 269 268 269
69 142 139 132 132 133 129 121 120 123 140 236 279 289 291 294 293 295 295 290 288 288 286 282 279 276 273 271 266 266 265 270
142 142 145 144 139 140 143 150 162 239 289 300 299 293 292 292 293 294 293 292 292 289 286 286 283 279 275 271 269 268 269 271
174 161 163 172 165 151 191 238 267 289 292 292 291 292 291 293 292 289 287 289 291 290 291 290 288 285 282 275 270 269 271 273
152 162 170 181 194 206 220 262 279 282 290 288 289 292 294 293 291 292 295 296 294 294 293 292 293 289 281 276 271 272 272 273
153 159 162 164 193 266 291 293 296 303 298 293 300 301 298 296 297 300 299 298 297 295 294 292 290 287 282 278 276 273 274 276
118 111 91 72 63 63 59 8 330 317 316 324 325 320 316 312 310 311 312 306 298 292 288 287 286 283 281 279 277 277 277 277
137 124 108 47 350 352 348 342 334 328 327 326 324 322 319 318 320 321 322 320 315 311 304 299 293 284 281 277 275 276 279 279
152 153 153 281 313 319 322 320 318 318 319 319 317 312 309 308 308 307 305 304 306 307 307 306 303 295 288 285 285 287 290 291
142 141 310 317 321 321 319 317 317 319 318 319 320 319 315 308 303 300 297 296 295 295 297 297 298 294 286 282 283 286 286 286
112 314 311 310 310 308 306 311 316 320 320 322 323 322 320 316 310 306 301 298 299 296 296 296 295 294 288 284 283 287 287 287
307 299 295 295 293 291 299 305 307 310 313 315 317 317 317 316 315 309 302 298 294 291 293 295 292 291 291 291 289 285 286 281
281 278 283 293 299 301 300 301 304 307 310 311 313 311 308 307 308 309 306 298 291 285 288 289 288 293 286 285 284 283 280 285
276 278 282 287 292 294 296 299 301 304 305 306 304 301 301 299 299 300 299 294 290 289 287 289 291 288 287 288 288 286 280 277
290 289 288 290 292 293 295 297 297 296 296 296 296 295 295 294 292 290 290 286 283 282 278 276 279 281 282 285 283 280 274 269
296 296 297 298 298 297 299 301 302 302 302 301 300 299 297 294 292 289 284 281 280 279 276 277 281 283 284 283 278 268 260 250
296 296 297 298 297 298 298 298 298 299 300 301 300 298 296 294 291 288 286 284 276 274 274 273 279 278 282 284 269 264 254 260
297 298 300 301 299 299 298 297 297 295 295 296 297 297 295 292 289 284 281 280 280 277 271 274 274 265 254 269 270 267 266 267
Wind_Speed_850mb
2 5 7 10 12 11 11 15 19 22 24 24 25 27 31 36 41 43 45 47 49 52 53 56 62 67 66 63 61 66 67 67
4 7 8 10 11 15 18 18 17 16 15 14 14 15 16 15 19 24 27 30 34 40 43 46 49 53 60 69 72 73 72 72
3 8 6 4 7 15 20 22 21 18 16 14 9 6 8 11 19 25 28 31 33 34 37 41 46 50 55 59 59 59 62 66
3 4 11 15 17 19 20 20 16 9 4 2 5 13 20 22 27 31 34 37 38 38 38 40 43 47 50 53 54 57 57 61
8 12 17 19 20 19 16 13 8 4 9 13 15 22 29 33 36 38 40 41 41 41 42 42 44 48 49 53 54 55 57 59
11 10 14 14 10 7 3 7 9 12 18 24 29 35 38 41 45 44 44 45 45 45 44 43 44 44 46 47 49 55 57 59
14 13 13 13 15 12 9 11 16 23 26 35 37 38 40 43 44 42 43 46 47 46 46 48 46 43 46 48 52 57 60 62
17 11 6 4 2 4 6 12 20 22 22 27 26 28 30 32 34 34 37 40 43 45 47 46 46 45 47 49 54 56 59 60
13 11 9 8 8 7 5 3 6 9 14 18 21 23 24 26 29 33 37 40 41 42 46 49 46 48 47 48 54 58 59 60
9 6 4 2 5 9 11 14 17 20 23 25 27 29 31 33 36 39 42 45 47 47 48 50 48 53 53 51 55 59 61 60
11 7 3 1 5 10 15 20 23 26 28 30 32 35 37 40 43 46 48 49 52 54 53 53 49 47 48 50 58 63 60 58
7 3 1 7 12 18 22 25 27 27 28 31 33 37 40 43 45 47 50 51 51 51 49 47 44 40 41 42 53 55 54 49
1 5 10 15 19 21 23 23 23 24 27 31 37 41 44 46 48 49 52 53 50 49 45 44 42 42 38 39 43 50 49 42
5 10 15 18 19 19 23 25 27 30 34 38 41 45 47 46 47 47 47 48 44 43 43 41 40 38 38 38 38 41 42 34
13 14 16 19 22 24 26 30 34 37 40 44 48 49 50 51 51 51 49 46 43 43 44 41 38 37 37 38 37 36 38 39
19 20 23 26 31 34 37 40 42 45 47 50 53 55 53 53 53 52 48 48 47 46 45 40 36 31 36 36 34 32 32 32
23 27 32 35 40 46 50 53 56 57 57 57 57 55 56 57 57 55 54 51 50 50 47 39 39 38 34 33 29 27 28 31
31 34 37 39 43 48 51 54 58 61 61 63 64 64 61 60 60 62 56 51 53 52 52 49 46 39 34 28 25 25 25 31
33 38 43 46 50 53 56 58 60 62 64 68 68 67 66 63 62 63 63 62 50 50 51 51 47 37 30 22 21 22 23 29
37 40 40 41 44 48 52 55 57 60 61 64 66 64 63 62 63 61 60 60 57 50 49 50 45 37 26 25 24 24 22 21
Wind_Direction_850mb
230 220 236 237 239 236 227 222 219 223 225 227 230 235 241 247 253 258 261 264 264 265 262 260 257 260 263 269 270 270 272 272
260 275 274 263 241 221 210 203 199 198 196 196 203 215 226 244 261 269 274 275 276 273 270 265 262 261 261 261 264 267 269 270
304 266 280 256 171 158 152 143 139 142 148 155 163 215 264 289 295 297 299 295 293 290 286 281 276 271 267 267 268 269 268 269
69 142 139 132 132 133 129 121 120 123 140 236 279 289 291 294 293 295 295 290 288 288 286 282 279 276 273 271 266 266 265 270
142 142 145 144 139 140 143 150 162 239 289 300 299 293 292 292 293 294 293 292 292 289 286 286 283 279 275 271 269 268 269 271
174 161 163 172 165 151 191 238 267 289 292 292 291 292 291 293 292 289 287 289 291 290 291 290 288 285 282 275 270 269 271 273
152 162 170 181 194 206 220 262 279 282 290 288 289 292 294 293 291 292 295 296 294 294 293 292 293 289 281 276 271 272 272 273
153 159 162 164 193 266 291 293 296 303 298 293 300 301 298 296 297 300 299 298 297 295 294 292 290 287 282 278 276 273 274 276
118 111 91 72 63 63 59 8 330 317 316 324 325 320 316 312 310 311 312 306 298 292 288 287 286 283 281 279 277 277 277 277
137 124 108 47 350 352 348 342 334 328 327 326 324 322 319 318 320 321 322 320 315 311 304 299 293 284 281 277 275 276 279 279
152 153 153 281 313 319 322 320 318 318 319 319 317 312 309 308 308 307 305 304 306 307 307 306 303 295 288 285 285 287 290 291
142 141 310 317 321 321 319 317 317 319 318 319 320 319 315 308 303 300 297 296 295 295 297 297 298 294 286 282 283 286 286 286
112 314 311 310 310 308 306 311 316 320 320 322 323 322 320 316 310 306 301 298 299 296 296 296 295 294 288 284 283 287 287 287
307 299 295 295 293 291 299 305 307 310 313 315 317 317 317 316 315 309 302 298 294 291 293 295 292 291 291 291 289 285 286 281
281 278 283 293 299 301 300 301 304 307 310 311 313 311 308 307 308 309 306 298 291 285 288 289 288 293 286 285 284 283 280 285
276 278 282 287 292 294 296 299 301 304 305 306 304 301 301 299 299 300 299 294 290 289 287 289 291 288 287 288 288 286 280 277
290 289 288 290 292 293 295 297 297 296 296 296 296 295 295 294 292 290 290 286 283 282 278 276 279 281 282 285 283 280 274 269
296 296 297 298 298 297 299 301 302 302 302 301 300 299 297 294 292 289 284 281 280 279 276 277 281 283 284 283 278 268 260 250
296 296 297 298 297 298 298 298 298 299 300 301 300 298 296 294 291 288 286 284 276 274 274 273 279 278 282 284 269 264 254 260
297 298 300 301 299 299 298 297 297 295 295 296 297 297 295 292 289 284 281 280 280 277 271 274 274 265 254 269 270 267 266 267